Погода в Новлянке

Россия / Владимирская область     55°47′50″N   41°44′30″E
темп.,
°C
ветер,
м/с
пор.,
м/с
влажн.,
%
обл.,
%
осадки,
мм/ч
давл.,
гПа
погр.,
м
17 июня, чт
чт1700:00+12ссз39730 0.0 1017159
03:00+11ссз357719 0.0 101975
06:00+14ссз26700 0.0 1020167
09:00+19ссз464810 0.0 1022727
12:00+22ссз563811 0.0 10221584
15:00+22с564112 0.0 10231751
18:00+20с475594 0.0 1024851
21:00+15ссз227215 0.0 102529
18 июня, пт
пт1800:00+13ссз22740 0.0 102611
03:00+12сз11760 0.0 102710
06:00+15сз12739 0.0 1028103
09:00+21зсз23569 0.0 1028730
12:00+24сз234397 0.0 10271888
15:00+25ссз234030 0.0 10262112
18:00+25ссз23555 0.0 1025717
21:00+18юв017511 0.0 102611
19 июня, сб
сб1900:00+16з228220 0.0 102631
03:00+15з368916 0.0 102797
06:00+17з38805 0.0 1027216
09:00+23зюз455626 0.0 1027722
12:00+26зюз454514 0.0 10261502
15:00+27зюз454237 0.0 10241760
18:00+26зюз36555 0.0 1024372
21:00+19зюз37774 0.0 1024110
20 июня, вс
вс2000:00+17з36885 0.0 102596
03:00+16з36955 0.0 1025104
06:00+18з35855 0.0 1025179
09:00+23зюз23620 0.0 1025707
12:00+27юз33470 0.0 10241397
15:00+28юз34380 0.0 10231661
18:00+27юз24520 0.0 1022227
21:00+20зюз33705 0.0 102244
21 июня, пн
пн2100:00+17зюз3479100 0.0 102250
03:00+16зюз228979 0.0 102334
06:00+19зюз248142 0.0 1023133
09:00+24зюз23615 0.0 1022658
12:00+28юз23481 0.0 10211426
15:00+30зюз23431 0.0 10201962
18:00+29зюз23542 0.0 1020224
21:00+22ссз22783 0.0 102113